DLH756 EDDF-VABB

Flight info

Callsign DLH756
Flight time N/A
Altitude 31000
Route CINDY8S/18 CINDY Z74 HAREM DCT ASLEP DCT TAKUT DCT DINKU L603 BESNI/N0470F350 L605 MIQ/N0463F370 DCT ALUTU DCT BIBAG L605 ESEGA DCT SUNIS DCT INVED DCT LUGEB DCT UDROS UN743 GAKSU UT310 SIN UN644 KARDE/N0477F390 UN644 ROLIN DCT LAGAS M747 SUBUT T923 ERLEV M11 RODAR A909 TUNEK B143 KRS A240 INRAK B449 RANAH L750 BIROS/N0469F410 L750 ZB G202 HILAL/N0477F390 G202 RK P628 VIKIT/N0471F410 Z8 AAE/N0475F400 R458 BVR/N0470F410 R458 BOFIN/N0474F400 DCT POKON DCT MB379 DCT EMROS
Aircraft A343/H-SDE2E3FGHIJ4J5M1RWXY/LB1D1

Departure

Time 2026-05-04 13:46
Airport Frankfurt Main Airport (EDDF)

Arrival

Time N/A
Airport Chhatrapati Shivaji Maharaj International Airport (VABB)
Time Latitude Longitude Altitude Speed Heading
2026-05-04 13:17 50.04726 8.56275 368 ft 0 kts 340°
2026-05-04 13:31 50.04707 8.56286 366 ft 4 kts 340°
2026-05-04 13:31 50.04685 8.56299 367 ft 2 kts 340°
2026-05-04 13:31 50.04663 8.56316 369 ft 4 kts 315°
2026-05-04 13:31 50.04651 8.56349 366 ft 4 kts 270°
2026-05-04 13:32 50.04655 8.56386 364 ft 4 kts 250°
2026-05-04 13:32 50.04661 8.56411 367 ft 0 kts 250°
2026-05-04 13:36 50.04658 8.56400 368 ft 2 kts 250°
2026-05-04 13:37 50.04645 8.56345 367 ft 12 kts 250°
2026-05-04 13:37 50.04611 8.56205 367 ft 14 kts 249°
2026-05-04 13:37 50.04579 8.56068 364 ft 13 kts 250°
2026-05-04 13:37 50.04553 8.55987 368 ft 12 kts 229°
2026-05-04 13:38 50.04451 8.55922 366 ft 12 kts 194°
2026-05-04 13:38 50.04363 8.55921 367 ft 13 kts 167°
2026-05-04 13:38 50.04274 8.55961 363 ft 13 kts 184°
2026-05-04 13:38 50.04222 8.55865 364 ft 12 kts 246°
2026-05-04 13:39 50.04189 8.55745 366 ft 12 kts 251°
2026-05-04 13:39 50.04160 8.55610 363 ft 15 kts 250°
2026-05-04 13:39 50.04127 8.55463 360 ft 14 kts 249°
2026-05-04 13:39 50.04092 8.55323 365 ft 13 kts 249°
2026-05-04 13:40 50.04062 8.55196 363 ft 12 kts 250°
2026-05-04 13:40 50.04030 8.55067 363 ft 15 kts 249°
2026-05-04 13:40 50.03988 8.54891 360 ft 18 kts 250°
2026-05-04 13:40 50.03941 8.54703 358 ft 19 kts 244°
2026-05-04 13:41 50.03896 8.54519 357 ft 19 kts 251°
2026-05-04 13:41 50.03843 8.54334 354 ft 18 kts 236°
2026-05-04 13:41 50.03782 8.54147 356 ft 20 kts 248°
2026-05-04 13:42 50.03686 8.53747 357 ft 19 kts 250°
2026-05-04 13:42 50.03637 8.53552 349 ft 19 kts 248°
2026-05-04 13:42 50.03591 8.53362 352 ft 19 kts 249°
2026-05-04 13:42 50.03545 8.53174 354 ft 19 kts 249°
2026-05-04 13:43 50.03501 8.52987 353 ft 18 kts 249°
2026-05-04 13:43 50.03453 8.52805 338 ft 18 kts 247°
2026-05-04 13:43 50.03440 8.52756 336 ft 0 kts 248°
2026-05-04 13:43 50.03439 8.52752 336 ft 1 kts 248°
2026-05-04 13:44 50.03427 8.52704 334 ft 10 kts 249°
2026-05-04 13:44 50.03398 8.52610 335 ft 6 kts 220°
2026-05-04 13:44 50.03358 8.52597 336 ft 6 kts 184°
2026-05-04 13:44 50.03230 8.52596 337 ft 41 kts 180°
2026-05-04 13:45 50.02775 8.52601 335 ft 89 kts 180°
2026-05-04 13:45 50.02011 8.52608 338 ft 129 kts 179°
2026-05-04 13:45 50.00995 8.52620 334 ft 162 kts 180°
2026-05-04 13:45 49.99827 8.52640 682 ft 169 kts 182°
2026-05-04 13:46 49.98621 8.52618 1147 ft 175 kts 184°
2026-05-04 13:46 49.97402 8.52611 1594 ft 179 kts 183°
2026-05-04 13:46 49.96087 8.52739 1776 ft 203 kts 169°
2026-05-04 13:46 49.94832 8.53955 1927 ft 235 kts 134°
2026-05-04 13:47 49.94062 8.56319 2314 ft 258 kts 104°
2026-05-04 13:47 49.93835 8.59130 3000 ft 264 kts 95°
2026-05-04 13:47 49.93743 8.61994 3760 ft 268 kts 93°
2026-05-04 13:47 49.93657 8.64919 4463 ft 275 kts 93°
2026-05-04 13:48 49.93555 8.67910 5186 ft 279 kts 94°
2026-05-04 13:48 49.93338 8.70914 5977 ft 279 kts 107°
2026-05-04 13:48 49.92437 8.73550 6703 ft 278 kts 134°
2026-05-04 13:48 49.91051 8.75559 7466 ft 275 kts 143°
2026-05-04 13:49 49.89570 8.77415 8319 ft 273 kts 143°
2026-05-04 13:49 49.88234 8.79524 9090 ft 275 kts 130°
2026-05-04 13:49 49.87130 8.81959 9843 ft 277 kts 126°
2026-05-04 13:49 49.86076 8.84499 10355 ft 285 kts 126°
2026-05-04 13:50 49.84989 8.87172 10640 ft 301 kts 126°
2026-05-04 13:50 49.83852 8.89995 10879 ft 317 kts 125°
2026-05-04 13:50 49.82660 8.92968 11129 ft 332 kts 125°
2026-05-04 13:50 49.81413 8.96086 11446 ft 347 kts 124°
2026-05-04 13:51 49.80117 8.99326 11716 ft 361 kts 124°
2026-05-04 13:51 49.78778 9.02679 12171 ft 369 kts 124°
2026-05-04 13:51 49.77416 9.06085 12701 ft 374 kts 124°
2026-05-04 13:51 49.76202 9.09688 13211 ft 382 kts 113°
2026-05-04 13:52 49.74638 9.17652 14254 ft 390 kts 115°
2026-05-04 13:52 49.73288 9.21271 14771 ft 390 kts 127°
2026-05-04 13:52 49.71655 9.24564 15282 ft 392 kts 132°
2026-05-04 13:53 49.69863 9.27754 15801 ft 394 kts 134°
2026-05-04 13:53 49.68005 9.30898 16313 ft 398 kts 135°
2026-05-04 13:53 49.66121 9.34057 16817 ft 401 kts 135°
2026-05-04 13:54 49.62501 9.40720 17808 ft 412 kts 125°
2026-05-04 13:54 49.61189 9.44688 18304 ft 418 kts 116°
2026-05-04 13:54 49.59134 9.53193 19132 ft 428 kts 111°
2026-05-04 13:55 49.58217 9.57570 19577 ft 431 kts 110°
2026-05-04 13:55 49.56393 9.66428 20392 ft 437 kts 111°
2026-05-04 13:55 49.55454 9.70903 20793 ft 440 kts 111°
2026-05-04 13:56 49.54494 9.75403 21233 ft 442 kts 111°
2026-05-04 13:56 49.53475 9.79874 21662 ft 443 kts 116°
2026-05-04 13:56 49.50356 9.87910 22478 ft 441 kts 130°
2026-05-04 13:57 49.48487 9.91679 22807 ft 444 kts 132°
2026-05-04 13:57 49.46547 9.95382 23196 ft 446 kts 133°
2026-05-04 13:58 49.40560 10.06498 24206 ft 454 kts 133°
2026-05-04 13:58 49.36526 10.14043 24825 ft 459 kts 133°
2026-05-04 13:58 49.35193 10.16551 25004 ft 460 kts 133°
2026-05-04 13:59 49.33162 10.20365 25295 ft 462 kts 133°
2026-05-04 13:59 49.30457 10.25437 25684 ft 465 kts 133°
2026-05-04 13:59 49.26339 10.33138 26208 ft 470 kts 133°
2026-05-04 14:00 49.24936 10.35754 26366 ft 471 kts 133°
2026-05-04 14:00 49.20406 10.43031 26925 ft 473 kts 139°
2026-05-04 14:00 49.18061 10.46564 27186 ft 475 kts 139°
2026-05-04 14:01 49.15721 10.50041 27456 ft 477 kts 139°
2026-05-04 14:01 49.13325 10.53579 27695 ft 479 kts 139°
2026-05-04 14:01 49.08516 10.60684 28191 ft 483 kts 139°
2026-05-04 14:02 49.06101 10.64248 28419 ft 484 kts 139°
2026-05-04 14:02 49.03676 10.67826 28707 ft 485 kts 139°
2026-05-04 14:02 49.01248 10.71406 28946 ft 487 kts 139°
2026-05-04 14:02 48.98810 10.74987 29230 ft 487 kts 139°
2026-05-04 14:03 48.96365 10.78571 29562 ft 486 kts 139°
2026-05-04 14:03 48.93927 10.82139 29903 ft 486 kts 139°
2026-05-04 14:03 48.91494 10.85695 30201 ft 485 kts 139°
2026-05-04 14:03 48.89063 10.89251 30455 ft 485 kts 139°
2026-05-04 14:04 48.84236 10.96308 30950 ft 485 kts 139°
2026-05-04 14:04 48.79374 11.03401 30976 ft 481 kts 139°
2026-05-04 14:05 48.72151 11.13882 30968 ft 479 kts 140°
2026-05-04 14:06 48.67364 11.20924 30973 ft 481 kts 135°
2026-05-04 14:06 48.63648 11.29290 30968 ft 488 kts 117°
2026-05-04 14:07 48.61299 11.38968 30941 ft 491 kts 110°
2026-05-04 14:07 48.59241 11.48840 30946 ft 493 kts 110°
2026-05-04 14:08 48.57225 11.58747 30942 ft 494 kts 107°
2026-05-04 14:08 48.55659 11.68846 30944 ft 494 kts 105°
2026-05-04 14:09 48.53453 11.83994 30951 ft 494 kts 104°
2026-05-04 14:10 48.51229 11.99177 30948 ft 493 kts 104°
2026-05-04 14:10 48.49739 12.09214 30953 ft 493 kts 104°
2026-05-04 14:11 48.48234 12.19301 30940 ft 493 kts 104°
2026-05-04 14:11 48.45939 12.34393 30939 ft 492 kts 104°
2026-05-04 14:12 48.44401 12.44431 30940 ft 492 kts 105°
2026-05-04 14:13 48.42084 12.59479 30934 ft 492 kts 105°
2026-05-04 14:13 48.40530 12.69504 30928 ft 492 kts 105°
2026-05-04 14:14 48.38649 12.79365 30928 ft 490 kts 110°
2026-05-04 14:14 48.35323 12.93855 30926 ft 490 kts 111°
2026-05-04 14:15 48.30780 13.13183 30921 ft 490 kts 111°
2026-05-04 14:16 48.26563 13.27103 30916 ft 488 kts 119°
2026-05-04 14:17 48.21882 13.40643 30916 ft 488 kts 119°
2026-05-04 14:18 48.17179 13.54143 30919 ft 490 kts 119°
2026-05-04 14:19 48.10873 13.72218 30923 ft 489 kts 119°
2026-05-04 14:19 48.07708 13.81243 30925 ft 490 kts 119°
2026-05-04 14:20 48.04531 13.90275 30926 ft 490 kts 119°
2026-05-04 14:20 48.01374 13.99210 30928 ft 490 kts 119°
2026-05-04 14:21 47.96590 14.12702 30925 ft 490 kts 119°
2026-05-04 14:21 47.93386 14.21703 30932 ft 490 kts 119°
2026-05-04 14:22 47.90195 14.30632 30933 ft 490 kts 119°
2026-05-04 14:22 47.86978 14.39603 30939 ft 490 kts 119°
2026-05-04 14:23 47.82163 14.52969 30945 ft 490 kts 119°
2026-05-04 14:24 47.78926 14.61919 30949 ft 491 kts 119°
2026-05-04 14:24 47.75683 14.70855 30953 ft 491 kts 119°
2026-05-04 14:25 47.72427 14.79800 30967 ft 491 kts 119°
2026-05-04 14:25 47.67534 14.93180 30962 ft 492 kts 119°
2026-05-04 14:26 47.64257 15.02103 30974 ft 493 kts 119°
2026-05-04 14:26 47.60960 15.11051 30983 ft 495 kts 119°
2026-05-04 14:27 47.57677 15.19933 30980 ft 493 kts 119°
2026-05-04 14:27 47.54362 15.28866 30987 ft 495 kts 119°
2026-05-04 14:28 47.51050 15.37763 30995 ft 494 kts 119°
2026-05-04 14:28 47.47725 15.46672 30993 ft 495 kts 119°
2026-05-04 14:29 47.41058 15.64437 30998 ft 495 kts 119°
2026-05-04 14:30 47.37729 15.73257 30998 ft 494 kts 119°
2026-05-04 14:31 47.32684 15.86582 30997 ft 494 kts 119°
2026-05-04 14:32 47.25975 16.04195 30993 ft 491 kts 119°
2026-05-04 14:32 47.22623 16.12953 30996 ft 492 kts 119°
2026-05-04 14:33 47.19259 16.21713 30999 ft 491 kts 119°
2026-05-04 14:33 47.15890 16.30461 31006 ft 492 kts 119°
2026-05-04 14:34 47.13163 16.39570 31012 ft 490 kts 109°
2026-05-04 14:34 47.10976 16.49065 31004 ft 491 kts 107°
2026-05-04 14:35 47.08872 16.58593 31007 ft 490 kts 107°
2026-05-04 14:35 47.06762 16.68119 31010 ft 490 kts 107°
2026-05-04 14:36 47.04641 16.77587 31007 ft 492 kts 108°
2026-05-04 14:36 47.02489 16.87102 31015 ft 491 kts 108°
2026-05-04 14:37 47.00327 16.96605 31020 ft 491 kts 108°
2026-05-04 14:37 46.98162 17.06105 31022 ft 492 kts 108°
2026-05-04 14:38 46.95992 17.15585 31027 ft 490 kts 108°
2026-05-04 14:38 46.93824 17.25008 31023 ft 490 kts 108°
2026-05-04 14:39 46.91640 17.34448 31084 ft 490 kts 108°
2026-05-04 14:39 46.90540 17.39186 31342 ft 490 kts 108°
2026-05-04 14:39 46.89446 17.43897 31573 ft 490 kts 108°
2026-05-04 14:40 46.87242 17.53348 32076 ft 489 kts 108°